Погода в Монти Карвуэйре

Португалия     37°05′58″N   8°28′28″W
темп.,
°C
ветер,
м/с
пор.,
м/с
влажн.,
%
обл.,
%
осадки,
мм/ч
давл.,
гПа
погр.,
м
16 мая, вс
вс1601:00+17ссз58870 0.0 1018180
04:00+17ссз46872 0.0 1017154
07:00+17с35860 0.0 1017149
10:00+19ссз34745 0.0 101887
13:00+22з566592 0.0 1017147
16:00+22сз10136166 0.0 1016220
19:00+21сз911690 0.0 1016162
22:00+19ссз7118195 0.0 1017184
17 мая, пн
пн1701:00+18ссз698116 0.0 1017209
04:00+17ссз58805 0.0 1018287
07:00+16ссз6107898 0.0 1019305
10:00+19ссз3464100 0.0 101991
13:00+22зсз55605 0.0 1019124
16:00+22сз101261100 0.0 1018234
19:00+21сз8106622 0.0 1018139
22:00+18сз711764 0.0 1021223
18 мая, вт
вт1801:00+17ссз612725 0.0 1021345
04:00+16ссз49625 0.0 1020304
07:00+16с46613 0.0 1021212
10:00+19ссз35592 0.0 1022126
13:00+21з33596 0.0 1022127
16:00+23зсз8106081 0.0 1020230
19:00+21сз101366100 0.0 1020170
22:00+18ссз8127910 0.0 1022210
19 мая, ср
ср1901:00+17с6117714 0.0 1021282
04:00+16с612765 0.0 1020336
07:00+16с49740 0.0 1021286
10:00+20ссв68600 0.0 1021130
13:00+23сз13505 0.0 1020122
16:00+23ююз44572 0.0 101963
19:00+23з12585 0.0 101828
22:00+21ссз44595 0.0 102029
20 мая, чт
чт2001:00+19ссв46675 0.0 102061
04:00+19в4577100 0.0 101958
07:00+18всв338094 0.0 102043
10:00+19юв117840 0.0 102051
13:00+19ююз447913 0.0 102083
16:00+20юз677576 0.0 1018136
19:00+22зсз686474 0.0 1017106
22:00+20ссз457023 0.0 101854